Other Public Products
Issued by NWS Charleston, SC

Current Version | Previous Version | Graphics & Text | Print | Product List | Glossary On
Versions: 1 2 3 4 5 6 7 8 9 10 11 12 13 14 15 16 17 18 19 20 21 22 23 24 25 26 27 28 29 30 31 32 33 34 35 36 37 38 39 40 41 42 43 44 45 46 47 48 49 50
000 FPUS82 KCHS 301212 OPUCHS TEST...KCHS/KSAV Gateway Observations...TEST National Weather Service Charleston SC 800 AM EDT SUN APR 30 2017 NOTE: "fair" indicates few or no clouds below 12,000 feet with no significant weather and/or obstructions to visibility. SCZ050-WAZ558-NCZ071-TXZ119-213-PAZ071-DCZ001-FLZ074-172-MI076- NYZ176-178-MAZ016-IL014-TNZ027-NJZ106-GAZ044-MD014-301300- ...Gateway Observations for Charleston International... CITY SKY/WX TMP DP RH WIND PRES REMARKS Chas Airport MOSUNNY 73 70 90 S8 30.18R 6HR MIN TEMP: 72; 6HR MAX TEMP: 73; Seattle CLOUDY 48 45 89 W12 30.17R 6HR MIN TEMP: 48; 6HR MAX TEMP: 50; 6HR PCP: 0.01; Charlotte PTSUNNY 71 65 81 S6 30.19S 6HR MIN TEMP: 69; 6HR MAX TEMP: 72; Dallas DFW MOCLDY 50 39 66 W21G30 29.77R 6HR MIN TEMP: 50; 6HR MAX TEMP: 57; 6HR PCP: 0.01; Dallas Love MOCLDY 50 40 68 W14G24 29.80R 6HR MIN TEMP: 50; 6HR MAX TEMP: 57; 6HR PCP: 0.04; Philladelphia CLOUDY 65 50 58 NE10 30.18R 6HR MIN TEMP: 65; 6HR MAX TEMP: 71; Wash National PTSUNNY 72 69 90 NE8 30.12R 6HR MIN TEMP: 71; 6HR MAX TEMP: 75; Baltimore CLOUDY 69 62 78 NE10 30.13R 6HR MIN TEMP: 69; 6HR MAX TEMP: 72; Miami PTSUNNY 80 69 69 E12G22 30.10R 6HR MIN TEMP: 79; 6HR MAX TEMP: 80; Detroit CLOUDY 46 40 79 E10 30.04R 6HR MIN TEMP: 43; 6HR MAX TEMP: 46; 6HR PCP: 0.38; Newark MOSUNNY 60 39 45 NE12 30.22R 6HR MIN TEMP: 59; 6HR MAX TEMP: 67; Laguardia CLOUDY 60 38 43 NE10 30.23R 6HR MIN TEMP: 60; 6HR MAX TEMP: 68; J F K PTSUNNY 60 39 45 NE14 30.23R 6HR MIN TEMP: 60; 6HR MAX TEMP: 68; Boston Logan MOSUNNY 51 29 42 N9 30.28R 6HR MIN TEMP: 50; 6HR MAX TEMP: 62; Ft. Lauderdale PTSUNNY 78 69 73 SE20G29 30.10R 6HR MIN TEMP: 77; 6HR MAX TEMP: 79; 6HR PCP: TRACE; Chicago O`Hare RAIN 43 41 93 NE15 29.91F FOG 6HR MIN TEMP: 42; 6HR MAX TEMP: 44; 6HR PCP: 0.08; Chicago Midway LGT RAIN 44 43 96 NE8 29.91F FOG 6HR MIN TEMP: 44; 6HR MAX TEMP: 46; 6HR PCP: 0.05; Houston Bush CLOUDY 63 49 60 NW10 29.84R 6HR MIN TEMP: 63; 6HR MAX TEMP: 64; Houston Hobby CLOUDY 65 45 48 NW16 29.83R 6HR MIN TEMP: 64; 6HR MAX TEMP: 69; 6HR PCP: TRACE; Nashville CLOUDY 73 66 78 S3 29.96R 6HR MIN TEMP: 72; 6HR MAX TEMP: 77; Atlanta CLOUDY 70 66 87 SE13G21 30.06F 6HR MIN TEMP: 69; 6HR MAX TEMP: 73; $$ GAZ044-118-TXZ119-213-NCZ071-DCZ001-MDZ014-506-PAZ021-071-NJZ106- NYZ176-178-MAZ106-OHZ011-021-055-MIZ076-KYZ091-ILZ014-INZ047- MNZ060-ONZ431-301300- ...Gateway Observations for Savannah International... CITY SKY/WX TMP DP RH WIND PRES REMARKS Savannah Arpt MOSUNNY 76 70 82 S9 30.16R 6HR MIN TEMP: 73; 6HR MAX TEMP: 76; Atlanta CLOUDY 70 66 87 SE13G21 30.06F 6HR MIN TEMP: 69; 6HR MAX TEMP: 73; Charlotte PTSUNNY 71 65 81 S6 30.19S 6HR MIN TEMP: 69; 6HR MAX TEMP: 72; Dallas DFW MOCLDY 50 39 66 W21G30 29.77R 6HR MIN TEMP: 50; 6HR MAX TEMP: 57; 6HR PCP: 0.01; Houston Bush CLOUDY 63 49 60 NW10 29.84R 6HR MIN TEMP: 63; 6HR MAX TEMP: 64; Wash National PTSUNNY 72 69 90 NE8 30.12R 6HR MIN TEMP: 71; 6HR MAX TEMP: 75; Wash Dulles CLOUDY 68 63 84 VRB3 30.12R 6HR MIN TEMP: 66; 6HR MAX TEMP: 75; Baltimore CLOUDY 69 62 78 NE10 30.13R 6HR MIN TEMP: 69; 6HR MAX TEMP: 72; Philadelphia CLOUDY 65 50 58 NE10 30.18R 6HR MIN TEMP: 65; 6HR MAX TEMP: 71; Newark MOSUNNY 60 39 45 NE12 30.22R 6HR MIN TEMP: 59; 6HR MAX TEMP: 67; Laguardia CLOUDY 60 38 43 NE10 30.23R 6HR MIN TEMP: 60; 6HR MAX TEMP: 68; J F K PTSUNNY 60 39 45 NE14 30.23R 6HR MIN TEMP: 60; 6HR MAX TEMP: 68; Boston MOSUNNY 51 29 42 N9 30.28R 6HR MIN TEMP: 50; 6HR MAX TEMP: 62; Pittsburg CLOUDY 60 59 96 SE3 30.05R 6HR MIN TEMP: 58; 6HR MAX TEMP: 60; 6HR PCP: 0.01; Akron PTSUNNY 58 54 86 SE5 30.02S 6HR MIN TEMP: 51; 6HR MAX TEMP: 58; 6HR PCP: 0.02; Cleveland PTSUNNY 53 46 77 E8 30.02F 6HR MIN TEMP: 49; 6HR MAX TEMP: 53; Cincinnati CLOUDY 71 65 81 S9 29.92R 6HR MIN TEMP: 67; 6HR MAX TEMP: 73; 6HR PCP: TRACE; Columbus FOG 60 60 100 E5 29.98S VSB 1 Detroit CLOUDY 46 40 79 E10 30.04R 6HR MIN TEMP: 43; 6HR MAX TEMP: 46; 6HR PCP: 0.38; Chicago O`Hare RAIN 43 41 93 NE15 29.91F FOG 6HR MIN TEMP: 42; 6HR MAX TEMP: 44; 6HR PCP: 0.08; Minneapolis CLOUDY 44 23 43 E14 30.04F 6HR MIN TEMP: 44; 6HR MAX TEMP: 47; Indianapolis CLOUDY 58 57 97 E9 29.83F 6HR MIN TEMP: 57; 6HR MAX TEMP: 58; 6HR PCP: TRACE; Toronto Canada CLOUDY 39 30 70 E16G25 30.24S WCI 30 $$

USA.gov is the U.S. government's official web portal to all federal, state and local government web resources and services.